Regional Weather Roundup
Issued by NWS Wakefield, VA

Home | Current Version | Previous Version | Graphics & Text | Print | Product List | Glossary On
Versions: 1 2 3 4 5 6 7 8 9 10 11 12 13 14 15 16 17 18 19 20 21 22 23 24 25 26 27
000
ASUS41 KAKQ 271115
RWRAKQ

REGIONAL WEATHER ROUNDUP
NATIONAL WEATHER SERVICE WAKEFIELD VA
700 AM EDT FRI MAY 27 2016

Note: "fair" indicates few or no clouds below 12,000 feet with no
significant weather and/or obstructions to visibility. * = Denotes
station may not report precipitation (e.g., rain,snow,etc.),
thunder or fog.

VAZ042-051-052>054-056-271200-
NORTHERN VIRGINIA

CITY           SKY/WX    TMP DP  RH WIND       PRES   REMARKS
WASH NATIONAL  PTSUNNY   72  65  78 SW3       30.09R
DULLES         FAIR      69  64  84 CALM      30.09R
FORT BELVOIR   FAIR      66  65  94 CALM      30.09R
QUANTICO       FAIR      71  65  81 SW3       30.09R
FREDERICKSBRG* NOT AVBL
STAFFORD*      FAIR      67  64  87 CALM      30.13R
WARRENTON      FAIR      66  61  85 CALM      30.10R
CULPEPER*      FAIR      65  65 100 CALM      30.11R FOG
MANASSAS*      SUNNY     66  66 100 CALM      30.09R
LEESBURG*      FAIR      70  68  94 CALM      30.10R
WINCHESTER     FAIR      68  64  88 CALM      30.09R
FRONT ROYAL*   PTSUNNY   66  63  88 S5        30.09S
LURAY*         PTSUNNY   63  63 100 CALM      30.11S
$$

VAZ048-049-060>072-079>083-271200-
CENTRAL AND SOUTH CENTRAL VIRGINIA

CITY           SKY/WX    TMP DP  RH WIND       PRES   REMARKS
RICHMOND       FAIR      68  63  84 S7        30.11R
CHESTERFIELD*  FAIR      68  54  60 S7        30.12S
PETERSBURG*    FAIR      68  66  94 S5        30.12S
HANOVER        FAIR      70  64  81 S8        30.12R
TAPPAHANNOCK*  FAIR      70  63  79 S7        30.11R
QUINTON*       FAIR      69  63  80 S5        30.10F
CHARLOTTSVILLE FAIR      68  63  84 CALM      30.10R
GORDONSVILLE*  FAIR      65  64  97 CALM      30.10R
ORANGE*        FAIR      66  66 100 CALM      30.12R
LOUISA*        FAIR      72  66  83 CALM      30.10R
BUMPASS*       FAIR      68  64  88 SW3       30.10R
FARMVILLE*     FAIR      68  67  94 SW3       30.10R
CREWE*         FAIR      68  67  95 CALM      30.11R
FORT PICKETT*  NOT AVBL
CHASE CITY*    FAIR      67  64  89 SE3       30.13R
CLARKSVILLE*   FAIR      64  63  94 S6        30.12S
SOUTH HILL*    FAIR      64  61  91 S5        30.19R
LAWRENCEVILLE* FAIR      67  62  85 CALM      30.13S
EMPORIA*         N/A     66  63  88 SE3       30.15R
$$

VAZ088>098-271200-
SOUTHEAST VIRGINIA

CITY           SKY/WX    TMP DP  RH WIND       PRES   REMARKS
NORFOLK        FAIR      70  62  76 SW13      30.14S
VIRGINIA BEACH FAIR      73  63  70 SW10      30.14S
NORFOLK NAVAL  FAIR      71  63  75 SW10      30.15F
WEST POINT*    FAIR      70  61  74 S7        30.13S
SALUDA*        FAIR      70  63  77 S8        30.10F
NEWPORT NEWS   FAIR      71  63  75 SW9       30.14R
LANGLEY AFB    FAIR      71  64  79 S12       30.13S
FORT EUSTIS    FAIR      71  62  75 S7        30.11S
WILLIAMSBURG*  FAIR      72  63  73 S5        30.13S
HR EXEC AP*    FAIR      70  63  78 S6        30.17S
FRANKLIN*      FAIR      68  63  83 S5        30.14S
US460-WAKEFLD  FAIR      69  63  81 S5        30.13S
$$

VAZ020-022-025-037-045-271200-
WEST CENTRAL AND SOUTHWEST VIRGINIA

CITY           SKY/WX    TMP DP  RH WIND       PRES   REMARKS
STAUNTON*      FAIR      61  60  97 CALM      30.14R FOG
WAYNESBORO*    FAIR      62  60  94 CALM      30.14R
HOT SPRINGS VA MOCLDY    64  60  87 W6        30.22R
LYNCHBURG      PTSUNNY   65  64  97 SW3       30.14R
DANVILLE       FAIR      65  61  87 S3        30.13R
SOUTH BOSTON*  FAIR      66  64  91 CALM      30.12R
MARTINSVILLE   FOG       59  59 100 CALM      30.16R VSB 1/2
ROANOKE        FAIR      67  63  87 CALM      30.15R
BLACKSBURG     FAIR      61  61 100 CALM      30.20R FOG
DUBLIN*        FAIR      60  60 100 CALM      30.18R FOG
MARION*        FOG       57  56  95 CALM      30.22R VSB<1/4
HILLSVILLE*    FAIR      62  61  97 S5        30.19R
RICHLANDS*     FAIR      63  54  70 CALM      30.18R
WISE*          FAIR      61  59  94 S3        30.19R
ABINGDON*      MOCLDY    63  62  98 E5        30.16S
$$

MDZ021>025-VAZ099-100-271200-
SOUTHERN MARYLAND AND THE DELMARVA PENINSULA

CITY           SKY/WX    TMP DP  RH WIND       PRES   REMARKS
PATUXENT RIVER MOSUNNY   71  63  75 SW14      30.08R
BAY BRIDGE APT SUNNY     72  66  83 S7        30.07R
LEONARDTOWN    SUNNY     70  63  78 SW7       30.10S
DOVER          SUNNY     72  70  96 S10       30.06S
GEORGETOWN     SUNNY     70  64  81 S8        30.10S
EASTON         SUNNY     73  70  88 S7        30.12R
CAMBRIDGE      SUNNY     70  64  83 S6        30.09R
SALISBURY      SUNNY     69  63  81 SW8       30.10S
OCEAN CITY     SUNNY     65  63  93 S6        30.10F
WALLOPS ISLAND FAIR      68  64  87 S6        30.12F
ACCOMACK*      FAIR      72  59  64 S10       30.12S
$$

NCZ012>017-030>032-271200-
NORTH CENTRAL AND EASTERN NORTH CAROLINA

CITY           SKY/WX    TMP DP  RH WIND       PRES   REMARKS
ROANOKE RAPIDS FAIR      66  63  88 S3        30.14R
RALEIGH        PTCLDY    68  61  78 SW6       30.15R
ELIZABETH CITY MOSUNNY   69  63  81 CALM      30.17R
AHOSKIE*       SUNNY     65  63  91 S5        30.15S
EDENTON*       MOSUNNY  N/A N/A N/A S5        30.17S
CURRITUCK*     PTSUNNY   69  64  83 SW3       30.18R
KILL DEVIL HLS MOSUNNY   67  63  86 CALM      30.18R
MANTEO         NOT AVBL
CAPE HATTERAS  SUNNY     69  65  86 CALM      30.19R
TARBORO*       FAIR      66  64  91 CALM      30.16S
GOLDSBORO      SUNNY     65  65  99 E3        30.14S
WASHINGTON     SUNNY     64  62  96 CALM      30.17R
GREENVILLE     MOSUNNY   68  64  88 CALM      30.17S
NEW BERN       SUNNY     63  60  90 CALM      30.18R
WILMINGTON     SUNNY     65  63  93 CALM      30.16R
$$

VAZ048-271200-
ELSEWHERE

CITY           SKY/WX    TMP DP  RH WIND       PRES   REMARKS
HARRISBURG PA  MOSUNNY   70  66  87 CALM      30.06R FOG
BALTIMORE      PTSUNNY   70  64  81 CALM      30.08R
ANNAPOLIS      SUNNY     71  66  84 CALM      30.07R
ANDREWS AFB    FAIR      71  64  79 SW6       30.08R
PHILADELPHIA   MOSUNNY   71  63  75 S5        30.07R
HENDERSON NC   SUNNY     64  58  81 S5        30.14R
GREENSBORO     PTCLDY    66  61  84 SW7       30.13R
ROCKY MOUNT    SUNNY     68  65  90 S3        30.15S
$$

VAZ100-271200-
MARINE

STATION/POSITION TIME  TEMP    WIND        PRES    WAVE   SWELL
                       AIR SEA DIR/SP/G            HT/PER HT/PER
                 (UTC) (F)     (DEG/KT/KT) (MB)    (FT/S) (FT/S)
BRANDYWINE LGT   1000   67     200/ 12/ 13 1018.6F
CAPE MAY NJ      1000   67 65  150/  5/  7 1018.7R
LEWES DE         1000   71 60  220/  7/ 11 1018.7S
15NM E FENWICK I 1050   63 60              1019.7F   3/ 5
OCEAN-CITY-INLET 1000   61 60  210/  9/ 11 1020.1R
WACHAPREAGUE VA  1000   71 75  220/  5/  8 1019.8R
THOMAS POINT MD  1100   68 65  170/ 12/ 13 1019.6R
GOOSES REEF MD   1100   71 65  200/ 10/ 12 1019.5R   1/ 3
COVE POINT MD    1000   71     230/ 10/ 13 1019.0S
SOLOMONS ISLAND  1000   71 67  220/ 14/ 16   N/A
BISHOPS HEAD MD  1000   71 71  200/ 10/ 12 1019.0R
PINEY POINT MD   1000          230/ 13/ 15   N/A
POTOMAC MD       1000   70 69  230/ 12/ 14 1017.8F   1/ 2
CAMBRIDGE MD     1000   71 66  190/  5/  9 1017.8S
LEWISETTA VA     1000   71 71  210/ 10/ 12 1018.3F
RAPPAHANNOCK LGT 1000          190/ 13/ 15 1020.4S
STINGRAY PT      1000   71 69  250/ 12/ 14 1019.9R   1/ 2
YORK RVR RNG VA  1000   72     240/ 14/ 15 1019.3R
YORKTOWN VA      1000   71 68  220/ 11/ 15 1019.5F
JAMESTOWN VA     1000   71 72  190/  6/ 10   N/A     0
DOMINION TERM VA 1000   70     190/  8/ 10 1020.5R
KIPTOPEKE VA     1000      68  200/  8/  9   N/A
CHES BAY BRIDGE  1000   70 66  210/ 14/ 16 1020.3R
CAPE HENRY VA    1000   71     210/  9/ 14   N/A
CHESAPEAKE LGHT  1000   70     220/ 18/ 19 1021.2F
WILLOUBY STN VA  1000   71     210/ 14/ 17 1021.4R
CAPE HENRY BUOY  1012      66                N/A     2/ 8
1ST LANDING BUOY 1100   70 66  210/ 12/ 14 1020.6R   1/ 2
CAPE CHARLES BUO 1056      66                N/A     2/ 4   2/ 8
OFFSHORE WE BUOY 1051      65                N/A     2/ 7   2/ 7
64NM E OF VA BCH 1050   64 59  200/  6/  6 1021.9R   2/ 8   2/ 8
DUCK PIER NC     1000   71 60  220/  7/  8 1021.0R
44100 DUCK FRF   1054      65                N/A     2/ 8
44056 DUCK FRF   1011      62                N/A     2/ 7
OREGON INLET NC  1000   72 76  220/  3/  3 1021.6R
HATTERAS NC      1000   71 72  150/  2/  3 1021.2R
DIAMOND SHLS NC  1050   77 80  170/  6/  8 1022.0R   2/ 8   2/ 8
CAPE C1F1C2F2C3F3C4F4C5F5C6F6C7F7C8M1C9!



USA.gov is the U.S. government's official web portal to all federal, state and local government web resources and services.